Home > Weather > Rasht > Past weeks

Flag for Iran Weather for the Past 2 Weeks in Rasht, Iran

Now
61 °F

Mostly cloudy.


Feels Like: 61 °F
Forecast: 62 / 76 °F
Wind: No wind

Location: Rasht Airport

Current Time: May 5, 2016 at 4:05:35 AM

Latest Report: May 5, 2016 at 3:30 AM


Visibility: 4 mi

Pressure: 29.71 "Hg

Humidity: 100%

Dew Point: 61 °F

Location of RashtLocation

Historic Weather in Rasht — Graph

°F

Rasht Temperature Yesterday

Maximum temperature yesterday: 66 °F (at 11:30 AM)
Minimum temperature yesterday: 61 °F (at 12:30 AM)
Average temperature yesterday: 64 °F

High & Low Weather Summary for the Past Weeks

 TemperatureHumidityPressure
High97 °F (Apr 21, 4:30 PM)100% (Apr 22, 10:30 PM)30.39 "Hg (Apr 22, 10:30 PM)
Low52 °F (Apr 20, 4:30 AM)16% (Apr 21, 3:30 PM)29.59 "Hg (Apr 26, 1:30 AM)
Average64 °F78%29.94 "Hg
* Reported Apr 20 2:30 AM — May 5 2:30 AM, Rasht, Weather by CustomWeather, © 2016

Note: Actual official high and low records may vary slightly from our data, if they occured in-between our weather recording intervals... More about our weather records

Advertising

Rasht Weather History for the Previous 24 Hours

Scroll right to see more
 ConditionsComfort  
Time TempWeatherWind HumidityBarometerVisibility
2:30 AM
Thu, May 5
61 °FMostly cloudy.No wind94%29.71 "Hg4 mi
1:30 AM61 °FMostly cloudy.2 mph94%29.71 "Hg4 mi
12:30 AM63 °FMostly cloudy.5 mph94%29.68 "Hg4 mi
11:30 PM
Wed, May 4
63 °FMostly cloudy.No wind88%29.65 "Hg4 mi
10:30 PM63 °FMostly cloudy.No wind94%29.65 "Hg4 mi
10:00 PM64 °FMostly cloudy.No wind83%29.62 "Hg4 mi
9:30 PM64 °FMostly cloudy.No wind83%29.62 "Hg4 mi
9:00 PM64 °FMostly cloudy.No wind83%29.62 "Hg4 mi
8:30 PM64 °FMostly cloudy.No wind83%29.62 "Hg4 mi
8:00 PM64 °FMostly cloudy.No wind83%29.62 "Hg4 mi
7:30 PM64 °FMostly cloudy.No wind83%29.62 "Hg4 mi
6:30 PM64 °FMostly cloudy.No wind83%29.62 "Hg4 mi
6:00 PM66 °FMostly cloudy.No wind78%29.65 "Hg4 mi
5:30 PM66 °FMostly cloudy.5 mph78%29.65 "Hg4 mi
4:30 PM66 °FMostly cloudy.No wind78%29.65 "Hg4 mi
4:00 PM66 °FMostly cloudy.No wind78%29.68 "Hg4 mi
3:30 PM66 °FMostly cloudy.5 mph78%29.68 "Hg4 mi
2:30 PM64 °FMostly cloudy.5 mph88%29.71 "Hg4 mi
2:00 PM64 °FMostly cloudy.7 mph88%29.71 "Hg4 mi
1:30 PM64 °FMostly cloudy.7 mph88%29.71 "Hg4 mi
1:00 PM64 °FMostly cloudy.7 mph88%29.71 "Hg4 mi
12:30 PM64 °FMostly cloudy.5 mph88%29.71 "Hg4 mi
12:00 PM66 °FMostly cloudy.No wind83%29.74 "Hg4 mi
11:30 AM66 °FMostly cloudy.No wind83%29.74 "Hg4 mi
11:00 AM64 °FMostly cloudy.No wind83%29.77 "Hg4 mi
10:30 AM63 °FMostly cloudy.No wind88%29.77 "Hg4 mi
10:00 AM64 °FMostly cloudy.No wind83%29.77 "Hg4 mi
9:30 AM64 °FMostly cloudy.No wind83%29.77 "Hg4 mi
9:00 AM63 °FFog.No wind88%29.77 "Hg2 mi
8:30 AM63 °FFog.No wind88%29.77 "Hg2 mi
8:00 AM61 °FFog.No wind94%29.80 "Hg2 mi
7:30 AM61 °FFog.No wind94%29.80 "Hg2 mi
7:00 AM61 °FFog.No wind94%29.80 "Hg2 mi
6:30 AM61 °FFog.No wind94%29.80 "Hg2 mi
5:30 AM61 °FFog.No wind94%29.80 "Hg3 mi
4:30 AM61 °FFog.No wind94%29.80 "Hg3 mi
Weather by CustomWeather, © 2016

See weather overviewHow to use our weather pages